Isla Saona, Dominican Republic
Current Conditions -  °F | °C
As of 2:00 PM on Saturday 20 Dec 2014 (Local Time) from MDPC Reporting Station
Scattered Clouds Scattered Clouds  
Wind Chill: 82°   Ceiling: Unl
Heat Index: 87°   Visibility: 6mi
Dew Point: 72°   Wind: 8mph
Humidity: 70%   Direction: 110°ESE
Pressure: 30"   Gusts: NA
Location:  18.09°N, 67.89°W
Report Text: MDPC 201800Z 11007KT 9999 SCT025 28/22 Q1016
Loading
Personal Weather Stations






























Interactive Weather Map New forecast layout! Learn more

10-Day Weather Forecast

Advertisements
Track Severe Weather on mobile